This demonstration page uses our WeatherBlox Daily Observations layout. Learn more.

Left ArrowRight Arrow

41.12389, -100.76542

Hourly Observations for February 16, 2017

Temp ( °F °C ) Dew Point ( °F °C ) Humidity (%) Winds ( mph kmh ) Pressure ( in mb ) Visibility ( mi km ) Precip ( " mm )
12:53 am 00:53 Clear 28 -2.2 22 -5.6 78 78 NW 9 15 29.86 1011 10 16 0.00 0.00
1:53 am 01:53 Clear 27 -2.8 22 -5.6 81 81 NW 7 11 29.85 1011 10 16 0.00 0.00
2:53 am 02:53 Clear 25 -3.9 20 -6.7 81 81 WNW 6 9 29.85 1011 10 16 0.00 0.00
3:53 am 03:53 Clear 24 -4.4 19 -7.2 81 81 WNW 5 7 29.84 1010 10 16 0.00 0.00
4:53 am 04:53 Clear 24 -4.4 20 -6.7 84 84 NW 7 11 29.83 1010 10 16 0.00 0.00
5:53 am 05:53 Clear 23 -5 20 -6.7 88 88 NW 5 7 29.83 1010 10 16 0.00 0.00
6:53 am 06:53 Clear 24 -4.4 20 -6.7 84 84 NW 8 13 29.84 1011 10 16 0.00 0.00
7:53 am 07:53 Sunny 25 -3.9 21 -6.1 85 85 NW 7 11 29.84 1011 10 16 0.00 0.00
8:53 am 08:53 Sunny 33 0.6 26 -3.3 75 75 NW 7 11 29.84 1011 10 16 0.00 0.00
9:53 am 09:53 Sunny 44 6.7 28 -2.2 53 53 WNW 12 19 29.82 1010 10 16 0.00 0.00
10:53 am 10:53 Sunny 51 10.6 26 -3.3 38 38 W 9 15 29.80 1009 10 16 0.00 0.00
11:53 am 11:53 Sunny 58 14.4 26 -3.3 29 29 W 8 13 29.77 1008 10 16 0.00 0.00
12:53 pm 12:53 Sunny 66 18.9 24 -4.4 20 20 WSW 10 17 29.72 1007 10 16 0.00 0.00
1:53 pm 13:53 Sunny 69 20.6 21 -6.1 16 16 W 12 19 29.70 1006 10 16 0.00 0.00
2:53 pm 14:53 Sunny 72 22.2 18 -7.8 13 13 W 9 15 29.67 1005 10 16 0.00 0.00
3:53 pm 15:53 Sunny 72 22.2 16 -8.9 12 12 W 12 19 29.66 1004 10 16 0.00 0.00
4:53 pm 16:53 Sunny 70 21.1 14 -10 11 11 W 10 17 29.65 1004 10 16 0.00 0.00
5:53 pm 17:53 Sunny 64 17.8 18 -7.8 17 17 SSW 6 9 29.65 1004 10 16 0.00 0.00
6:53 pm 18:53 Clear 47 8.3 21 -6.1 36 36 Calm 29.67 1005 10 16 0.00 0.00
7:53 pm 19:53 Clear 41 5 21 -6.1 45 45 Calm 29.68 1005 10 16 0.00 0.00
8:53 pm 20:53 Clear 35 1.7 24 -4.4 64 64 Calm 29.66 1005 10 16 0.00 0.00
9:53 pm 21:53 Clear 39 3.9 22 -5.6 50 50 Calm 29.62 1003 10 16 0.00 0.00
10:53 pm 22:53 Clear 39 3.9 19 -7.2 45 45 ESE 5 7 29.60 1002 10 16 0.00 0.00
11:53 pm 23:53 Clear 45 7.2 18 -7.8 34 34 SSE 6 9 29.57 1001 10 16 0.00 0.00

Powered by AerisWeather